Time,TemperatureF,DewpointF,PressureIn,WindDirection,WindDirectionDegrees,WindSpeedMPH,WindSpeedGustMPH,Humidity,HourlyPrecipIn,Conditions,Clouds,dailyrainin,SoftwareType,DateUTC
2013-01-06 00:00:00,17.0,15.3,30.19,NNW,337,0.0,0.0,93,0.00,,CLR,0.00,VWS V14.01,2013-01-06 05:00:00,
2013-01-06 00:10:00,17.0,15.3,30.19,NNW,337,0.0,0.0,93,0.00,,CLR,0.00,VWS V14.01,2013-01-06 05:10:00,
2013-01-06 00:20:00,17.0,15.3,30.18,NNW,337,0.0,0.0,93,0.00,,CLR,0.00,VWS V14.01,2013-01-06 05:20:00,
2013-01-06 00:30:00,17.0,15.3,30.18,NNW,337,0.0,0.0,93,0.00,,CLR,0.00,VWS V14.01,2013-01-06 05:30:00,
2013-01-06 00:40:00,17.0,15.3,30.17,NNW,337,0.0,0.0,93,0.00,,CLR,0.00,VWS V14.01,2013-01-06 05:40:00,
2013-01-06 00:50:00,17.0,15.3,30.18,NNW,337,0.0,0.0,93,0.00,,CLR,0.00,VWS V14.01,2013-01-06 05:50:00,
2013-01-06 01:00:00,17.0,15.3,30.18,NNW,337,0.0,0.0,93,0.00,,CLR,0.00,VWS V14.01,2013-01-06 06:00:00,
2013-01-06 01:10:00,17.0,15.3,30.18,NNW,337,0.0,0.0,93,0.00,,CLR,0.00,VWS V14.01,2013-01-06 06:10:00,
2013-01-06 01:20:00,18.0,16.3,30.18,NNW,337,0.0,0.0,93,0.00,,CLR,0.00,VWS V14.01,2013-01-06 06:20:00,
2013-01-06 01:30:00,18.0,16.3,30.18,NNW,337,0.0,0.0,93,0.00,,CLR,0.00,VWS V14.01,2013-01-06 06:30:00,
2013-01-06 01:40:00,18.0,16.3,30.19,NNW,337,0.0,0.0,93,0.00,,CLR,0.00,VWS V14.01,2013-01-06 06:40:00,
2013-01-06 01:50:00,19.0,17.3,30.19,NNW,337,0.0,0.0,93,0.00,,CLR,0.00,VWS V14.01,2013-01-06 06:50:00,
2013-01-06 02:00:00,19.0,17.3,30.20,NNW,337,0.0,0.0,93,0.00,,CLR,0.00,VWS V14.01,2013-01-06 07:00:00,
2013-01-06 02:10:00,19.0,17.3,30.21,NNW,337,0.0,0.0,93,0.00,,CLR,0.00,VWS V14.01,2013-01-06 07:10:00,
2013-01-06 02:20:00,19.0,17.3,30.20,NNW,337,0.0,0.0,93,0.00,,CLR,0.00,VWS V14.01,2013-01-06 07:20:00,
2013-01-06 02:30:00,20.0,18.3,30.19,NNW,337,0.0,0.0,93,0.00,,CLR,0.00,VWS V14.01,2013-01-06 07:30:00,
2013-01-06 02:40:00,20.0,18.0,30.19,NNW,337,0.0,0.0,92,0.00,,CLR,0.00,VWS V14.01,2013-01-06 07:40:00,
2013-01-06 02:50:00,20.0,18.0,30.19,NNW,337,0.0,0.0,92,0.00,,CLR,0.00,VWS V14.01,2013-01-06 07:50:00,
2013-01-06 03:00:00,20.0,18.3,30.17,NNW,337,0.0,0.0,93,0.00,,CLR,0.00,VWS V14.01,2013-01-06 08:00:00,
2013-01-06 03:10:00,20.0,18.0,30.16,NNW,337,0.0,0.0,92,0.00,,CLR,0.00,VWS V14.01,2013-01-06 08:10:00,
2013-01-06 03:20:00,20.0,17.8,30.16,NNW,337,0.0,0.0,91,0.00,,CLR,0.00,VWS V14.01,2013-01-06 08:20:00,
2013-01-06 03:30:00,21.0,18.8,30.14,NNW,337,0.0,0.0,91,0.00,,CLR,0.00,VWS V14.01,2013-01-06 08:30:00,
2013-01-06 03:40:00,21.0,18.5,30.14,NNW,337,0.0,0.0,90,0.00,,CLR,0.00,VWS V14.01,2013-01-06 08:40:00,
2013-01-06 03:50:00,21.0,18.5,30.13,NNW,337,0.0,0.0,90,0.00,,CLR,0.00,VWS V14.01,2013-01-06 08:50:00,
2013-01-06 04:00:00,21.0,18.3,30.12,NNW,337,0.0,0.0,89,0.00,,CLR,0.00,VWS V14.01,2013-01-06 09:00:00,
2013-01-06 04:10:00,21.0,18.3,30.11,NNW,337,0.0,0.0,89,0.00,,CLR,0.00,VWS V14.01,2013-01-06 09:10:00,
2013-01-06 04:20:00,21.0,18.0,30.11,NNW,337,0.0,0.0,88,0.00,,CLR,0.00,VWS V14.01,2013-01-06 09:20:00,
2013-01-06 04:30:00,22.0,19.3,30.11,NNW,337,0.0,0.0,89,0.00,,CLR,0.00,VWS V14.01,2013-01-06 09:30:00,
2013-01-06 04:40:00,22.0,19.3,30.11,NNW,337,0.0,0.0,89,0.00,,CLR,0.00,VWS V14.01,2013-01-06 09:40:00,
2013-01-06 04:50:00,22.0,19.3,30.11,NNW,337,0.0,0.0,89,0.00,,CLR,0.00,VWS V14.01,2013-01-06 09:50:00,
2013-01-06 05:00:00,22.0,19.5,30.10,NNW,337,0.0,0.0,90,0.00,,CLR,0.00,VWS V14.01,2013-01-06 10:00:00,
2013-01-06 05:10:00,22.0,19.8,30.09,NNW,337,0.0,0.0,91,0.00,,CLR,0.00,VWS V14.01,2013-01-06 10:10:00,
2013-01-06 05:20:00,22.0,19.8,30.09,NNW,337,0.0,0.0,91,0.00,,CLR,0.00,VWS V14.01,2013-01-06 10:20:00,
2013-01-06 05:30:00,22.0,20.3,30.09,NNW,337,0.0,0.0,93,0.00,,CLR,0.00,VWS V14.01,2013-01-06 10:30:00,
2013-01-06 05:40:00,22.0,20.3,30.08,NNW,337,0.0,0.0,93,0.00,,CLR,0.00,VWS V14.01,2013-01-06 10:40:00,
2013-01-06 05:50:00,22.0,20.3,30.08,NNW,337,0.0,0.0,93,0.00,,CLR,0.00,VWS V14.01,2013-01-06 10:50:00,
2013-01-06 06:00:00,22.0,20.3,30.08,NNW,337,0.0,0.0,93,0.00,,CLR,0.00,VWS V14.01,2013-01-06 11:00:00,
2013-01-06 06:10:00,22.0,20.3,30.07,NNW,337,0.0,0.0,93,0.00,,CLR,0.00,VWS V14.01,2013-01-06 11:10:00,
2013-01-06 06:20:00,22.0,20.3,30.07,NNW,337,0.0,0.0,93,0.00,,CLR,0.00,VWS V14.01,2013-01-06 11:20:00,
2013-01-06 06:30:00,22.0,20.3,30.06,NNW,337,0.0,0.0,93,0.00,,CLR,0.00,VWS V14.01,2013-01-06 11:30:00,
2013-01-06 06:40:00,22.0,20.3,30.05,NNW,337,0.0,0.0,93,0.00,,CLR,0.00,VWS V14.01,2013-01-06 11:40:00,
2013-01-06 06:50:00,22.0,20.3,30.07,NNW,337,0.0,0.0,93,0.00,,CLR,0.00,VWS V14.01,2013-01-06 11:50:00,
2013-01-06 07:00:00,23.0,21.3,30.07,NNW,337,0.0,0.0,93,0.00,,CLR,0.00,VWS V14.01,2013-01-06 12:00:00,
2013-01-06 07:10:00,23.0,21.3,30.06,NNW,337,0.0,0.0,93,0.00,,CLR,0.00,VWS V14.01,2013-01-06 12:10:00,
2013-01-06 07:20:00,23.0,21.3,30.05,NNW,337,0.0,0.0,93,0.00,,CLR,0.00,VWS V14.01,2013-01-06 12:20:00,
2013-01-06 07:30:00,23.0,21.3,30.05,NNW,337,0.0,0.0,93,0.00,,CLR,0.00,VWS V14.01,2013-01-06 12:30:00,
2013-01-06 07:40:00,23.0,21.3,30.04,NNW,337,0.0,0.0,93,0.00,,CLR,0.00,VWS V14.01,2013-01-06 12:40:00,
2013-01-06 07:50:00,23.0,21.3,30.04,NNW,337,0.0,0.0,93,0.00,,CLR,0.00,VWS V14.01,2013-01-06 12:50:00,
2013-01-06 08:00:00,23.0,21.3,30.03,NNW,337,0.0,0.0,93,0.00,,CLR,0.00,VWS V14.01,2013-01-06 13:00:00,
2013-01-06 08:10:00,23.0,21.3,30.03,NNW,337,0.0,0.0,93,0.00,,CLR,0.00,VWS V14.01,2013-01-06 13:10:00,
2013-01-06 08:20:00,23.0,21.3,30.03,NNW,337,0.0,0.0,93,0.00,,CLR,0.00,VWS V14.01,2013-01-06 13:20:00,
2013-01-06 08:30:00,24.0,22.3,30.03,NNW,337,0.0,0.0,93,0.00,,CLR,0.00,VWS V14.01,2013-01-06 13:30:00,
2013-01-06 08:40:00,25.0,23.5,30.03,West,270,0.0,0.0,94,0.00,,CLR,0.00,VWS V14.01,2013-01-06 13:40:00,
2013-01-06 08:50:00,25.0,23.5,30.04,West,270,0.0,1.0,94,0.00,,CLR,0.00,VWS V14.01,2013-01-06 13:50:00,
2013-01-06 09:00:00,25.0,23.5,30.04,West,270,0.0,0.0,94,0.00,,CLR,0.00,VWS V14.01,2013-01-06 14:00:00,
2013-01-06 09:10:00,26.0,24.5,30.04,SW,225,0.0,1.0,94,0.00,,CLR,0.00,VWS V14.01,2013-01-06 14:10:00,
2013-01-06 09:20:00,26.0,24.5,30.03,SW,225,0.0,2.0,94,0.00,,CLR,0.00,VWS V14.01,2013-01-06 14:20:00,
2013-01-06 09:30:00,27.0,25.5,30.02,SSW,202,0.0,3.0,94,0.00,,CLR,0.00,VWS V14.01,2013-01-06 14:30:00,
2013-01-06 09:40:00,28.0,26.5,30.02,West,270,0.0,6.0,94,0.00,,CLR,0.00,VWS V14.01,2013-01-06 14:40:00,
2013-01-06 09:50:00,29.0,26.7,30.02,WNW,292,0.0,3.0,91,0.00,,CLR,0.00,VWS V14.01,2013-01-06 14:50:00,
2013-01-06 10:00:00,30.0,27.4,30.02,SSW,202,2.0,2.0,90,0.00,,CLR,0.00,VWS V14.01,2013-01-06 15:00:00,
2013-01-06 10:10:00,31.0,27.9,30.02,SSW,202,1.0,3.0,88,0.00,,CLR,0.00,VWS V14.01,2013-01-06 15:10:00,
2013-01-06 10:20:00,32.0,28.0,30.02,SSW,202,0.0,6.0,85,0.00,,CLR,0.00,VWS V14.01,2013-01-06 15:20:00,
2013-01-06 10:30:00,32.0,27.7,30.01,West,270,0.0,5.0,84,0.00,,CLR,0.00,VWS V14.01,2013-01-06 15:30:00,
2013-01-06 10:40:00,33.0,28.4,30.00,SSW,202,0.0,7.0,83,0.00,,CLR,0.00,VWS V14.01,2013-01-06 15:40:00,
2013-01-06 10:50:00,33.0,27.5,30.00,WSW,247,0.0,5.0,80,0.00,,CLR,0.00,VWS V14.01,2013-01-06 15:50:00,
2013-01-06 11:06:00,35.0,28.5,29.99,WSW,247,2.0,3.0,77,0.00,,CLR,0.00,VWS V14.01,2013-01-06 16:06:00,
2013-01-06 11:11:00,36.0,28.9,29.99,SW,225,0.0,0.0,75,0.00,,CLR,0.00,VWS V14.01,2013-01-06 16:11:00,
2013-01-06 11:16:00,36.0,28.2,29.99,SSW,202,0.0,4.0,73,0.00,,CLR,0.00,VWS V14.01,2013-01-06 16:16:00,
2013-01-06 11:21:00,37.0,28.8,29.99,WSW,247,0.0,2.0,72,0.00,,CLR,0.00,VWS V14.01,2013-01-06 16:21:00,
2013-01-06 11:22:00,37.0,28.5,29.99,SW,225,2.0,2.0,71,0.00,,CLR,0.00,VWS V14.01,2013-01-06 16:22:00,
2013-01-06 11:26:00,37.0,28.1,29.98,WNW,292,2.0,4.0,70,0.00,,CLR,0.00,VWS V14.01,2013-01-06 16:26:00,
2013-01-06 11:27:00,37.0,28.1,29.98,WSW,247,0.0,4.0,70,0.00,,CLR,0.00,VWS V14.01,2013-01-06 16:27:00,
2013-01-06 11:31:00,37.0,27.8,29.98,SSE,157,0.0,9.0,69,0.00,,CLR,0.00,VWS V14.01,2013-01-06 16:31:00,
2013-01-06 11:32:00,37.0,27.8,29.98,SSW,202,2.0,9.0,69,0.00,,CLR,0.00,VWS V14.01,2013-01-06 16:32:00,
2013-01-06 11:36:00,37.0,28.1,29.98,WSW,247,0.0,9.0,70,0.00,,CLR,0.00,VWS V14.01,2013-01-06 16:36:00,
2013-01-06 11:37:00,37.0,28.1,29.98,WSW,247,2.0,9.0,70,0.00,,CLR,0.00,VWS V14.01,2013-01-06 16:37:00,
2013-01-06 11:41:00,37.0,27.4,29.97,NNW,337,2.0,2.0,68,0.00,,CLR,0.00,VWS V14.01,2013-01-06 16:41:00,
2013-01-06 11:42:00,37.0,27.4,29.97,SW,225,3.0,3.0,68,0.00,,CLR,0.00,VWS V14.01,2013-01-06 16:42:00,
2013-01-06 11:46:00,38.0,28.8,29.97,West,270,2.0,4.0,69,0.00,,CLR,0.00,VWS V14.01,2013-01-06 16:46:00,
2013-01-06 11:47:00,38.0,28.8,29.97,West,270,0.0,4.0,69,0.00,,CLR,0.00,VWS V14.01,2013-01-06 16:47:00,
2013-01-06 11:52:00,38.0,28.8,29.97,NNW,337,0.0,2.0,69,0.00,,CLR,0.00,VWS V14.01,2013-01-06 16:52:00,
2013-01-06 11:57:00,39.0,29.0,29.97,SSW,202,0.0,2.0,67,0.00,,CLR,0.01,VWS V14.01,2013-01-06 16:57:00,
2013-01-06 12:02:00,40.0,29.2,29.97,South,180,0.0,2.0,65,0.01,,CLR,0.01,VWS V14.01,2013-01-06 17:02:00,
2013-01-06 12:03:00,40.0,28.8,29.97,WSW,247,0.0,2.0,64,0.01,,CLR,0.01,VWS V14.01,2013-01-06 17:03:00,
2013-01-06 12:07:00,39.0,27.5,29.97,NNW,337,0.0,6.0,63,0.01,,CLR,0.01,VWS V14.01,2013-01-06 17:07:00,
2013-01-06 12:08:00,39.0,27.9,29.97,NNW,337,0.0,6.0,64,0.01,,CLR,0.01,VWS V14.01,2013-01-06 17:08:00,
2013-01-06 12:12:00,39.0,27.5,29.96,WNW,292,0.0,7.0,63,0.01,,CLR,0.01,VWS V14.01,2013-01-06 17:12:00,
2013-01-06 12:13:00,39.0,27.9,29.96,WNW,292,0.0,7.0,64,0.01,,CLR,0.01,VWS V14.01,2013-01-06 17:13:00,
2013-01-06 12:14:00,40.0,28.8,29.96,WSW,247,1.0,7.0,64,0.01,,CLR,0.01,VWS V14.01,2013-01-06 17:14:00,
2013-01-06 12:17:00,40.0,28.4,29.96,NE,45,0.0,7.0,63,0.01,,CLR,0.01,VWS V14.01,2013-01-06 17:17:00,
2013-01-06 12:18:00,40.0,28.4,29.96,NE,45,0.0,7.0,63,0.01,,CLR,0.01,VWS V14.01,2013-01-06 17:18:00,
2013-01-06 12:19:00,40.0,28.0,29.96,SW,225,0.0,7.0,62,0.01,,CLR,0.01,VWS V14.01,2013-01-06 17:19:00,
2013-01-06 12:22:00,40.0,28.0,29.96,SW,225,2.0,7.0,62,0.01,,CLR,0.01,VWS V14.01,2013-01-06 17:22:00,
2013-01-06 12:23:00,40.0,28.0,29.96,SSW,202,0.0,7.0,62,0.01,,CLR,0.01,VWS V14.01,2013-01-06 17:23:00,
2013-01-06 12:24:00,40.0,27.6,29.96,SW,225,1.0,7.0,61,0.01,,CLR,0.01,VWS V14.01,2013-01-06 17:24:00,
2013-01-06 12:27:00,40.0,28.0,29.96,WSW,247,0.0,9.0,62,0.01,,CLR,0.01,VWS V14.01,2013-01-06 17:27:00,
2013-01-06 12:28:00,40.0,28.0,29.96,WSW,247,0.0,9.0,62,0.01,,CLR,0.01,VWS V14.01,2013-01-06 17:28:00,
2013-01-06 12:29:00,40.0,28.4,29.96,WSW,247,2.0,9.0,63,0.01,,CLR,0.01,VWS V14.01,2013-01-06 17:29:00,
2013-01-06 12:32:00,40.0,28.0,29.96,SSW,202,0.0,0.0,62,0.01,,CLR,0.01,VWS V14.01,2013-01-06 17:32:00,
2013-01-06 12:33:00,40.0,28.0,29.96,WSW,247,1.0,2.0,62,0.01,,CLR,0.01,VWS V14.01,2013-01-06 17:33:00,
2013-01-06 12:34:00,40.0,27.6,29.96,WSW,247,2.0,2.0,61,0.01,,CLR,0.01,VWS V14.01,2013-01-06 17:34:00,
2013-01-06 12:37:00,40.0,27.6,29.96,West,270,0.0,6.0,61,0.01,,CLR,0.01,VWS V14.01,2013-01-06 17:37:00,
2013-01-06 12:38:00,40.0,27.6,29.96,SSE,157,0.0,6.0,61,0.01,,CLR,0.01,VWS V14.01,2013-01-06 17:38:00,
2013-01-06 12:39:00,41.0,28.6,29.96,SW,225,1.0,6.0,61,0.01,,CLR,0.01,VWS V14.01,2013-01-06 17:39:00,
2013-01-06 12:42:00,41.0,28.2,29.96,SSW,202,2.0,6.0,60,0.01,,CLR,0.01,VWS V14.01,2013-01-06 17:42:00,
2013-01-06 12:43:00,41.0,28.2,29.96,South,180,0.0,6.0,60,0.01,,CLR,0.01,VWS V14.01,2013-01-06 17:43:00,
2013-01-06 12:44:00,41.0,27.8,29.95,WNW,292,4.0,6.0,59,0.01,,CLR,0.01,VWS V14.01,2013-01-06 17:44:00,
2013-01-06 12:48:00,41.0,28.2,29.95,WSW,247,2.0,6.0,60,0.01,,CLR,0.01,VWS V14.01,2013-01-06 17:48:00,
2013-01-06 12:50:00,41.0,27.8,29.95,SSW,202,1.0,6.0,59,0.01,,CLR,0.01,VWS V14.01,2013-01-06 17:50:00,
2013-01-06 12:53:00,41.0,27.8,29.95,SW,225,0.0,4.0,59,0.01,,CLR,0.01,VWS V14.01,2013-01-06 17:53:00,
2013-01-06 12:55:00,41.0,27.8,29.95,SSW,202,0.0,4.0,59,0.01,,CLR,0.01,VWS V14.01,2013-01-06 17:55:00,
2013-01-06 12:58:00,41.0,27.8,29.95,WNW,292,0.0,4.0,59,0.01,,CLR,0.01,VWS V14.01,2013-01-06 17:58:00,
2013-01-06 13:00:00,42.0,28.3,29.95,SW,225,2.0,4.0,58,0.01,,CLR,0.01,VWS V14.01,2013-01-06 18:00:00,
2013-01-06 13:03:00,42.0,28.3,29.95,SW,225,1.0,2.0,58,0.00,,CLR,0.01,VWS V14.01,2013-01-06 18:03:00,
2013-01-06 13:04:00,41.0,27.4,29.95,WSW,247,1.0,6.0,58,0.00,,CLR,0.01,VWS V14.01,2013-01-06 18:04:00,
2013-01-06 13:05:00,41.0,27.4,29.95,SW,225,2.0,6.0,58,0.00,,CLR,0.01,VWS V14.01,2013-01-06 18:05:00,
2013-01-06 13:08:00,41.0,27.4,29.95,North,360,0.0,6.0,58,0.00,,CLR,0.01,VWS V14.01,2013-01-06 18:08:00,
2013-01-06 13:09:00,42.0,28.3,29.95,South,180,1.0,6.0,58,0.00,,CLR,0.01,VWS V14.01,2013-01-06 18:09:00,
2013-01-06 13:10:00,42.0,28.3,29.94,WSW,247,1.0,1.0,58,0.00,,CLR,0.01,VWS V14.01,2013-01-06 18:10:00,
2013-01-06 13:13:00,42.0,28.3,29.94,SSW,202,5.0,5.0,58,0.00,,CLR,0.01,VWS V14.01,2013-01-06 18:13:00,
2013-01-06 13:14:00,42.0,27.9,29.94,WSW,247,0.0,5.0,57,0.00,,CLR,0.01,VWS V14.01,2013-01-06 18:14:00,
2013-01-06 13:16:00,42.0,28.3,29.94,SW,225,0.0,5.0,58,0.00,,CLR,0.01,VWS V14.01,2013-01-06 18:16:00,
2013-01-06 13:18:00,42.0,27.9,29.94,South,180,2.0,5.0,57,0.00,,CLR,0.01,VWS V14.01,2013-01-06 18:18:00,
2013-01-06 13:19:00,42.0,27.9,29.94,SW,225,0.0,5.0,57,0.00,,CLR,0.01,VWS V14.01,2013-01-06 18:19:00,
2013-01-06 13:21:00,42.0,27.5,29.94,SW,225,0.0,2.0,56,0.00,,CLR,0.01,VWS V14.01,2013-01-06 18:21:00,
2013-01-06 13:23:00,42.0,27.5,29.94,WNW,292,2.0,4.0,56,0.00,,CLR,0.01,VWS V14.01,2013-01-06 18:23:00,
2013-01-06 13:24:00,42.0,27.5,29.94,North,360,2.0,4.0,56,0.00,,CLR,0.01,VWS V14.01,2013-01-06 18:24:00,
2013-01-06 13:26:00,42.0,28.3,29.95,NE,45,0.0,5.0,58,0.01,,CLR,0.02,VWS V14.01,2013-01-06 18:26:00,
2013-01-06 13:28:00,42.0,27.5,29.95,West,270,2.0,10.0,56,0.01,,CLR,0.02,VWS V14.01,2013-01-06 18:28:00,
2013-01-06 13:29:00,42.0,27.5,29.95,WSW,247,0.0,10.0,56,0.01,,CLR,0.02,VWS V14.01,2013-01-06 18:29:00,
2013-01-06 13:31:00,42.0,27.9,29.95,West,270,1.0,2.0,57,0.01,,CLR,0.02,VWS V14.01,2013-01-06 18:31:00,
2013-01-06 13:34:00,42.0,27.9,29.95,NNW,337,0.0,2.0,57,0.01,,CLR,0.02,VWS V14.01,2013-01-06 18:34:00,
2013-01-06 13:35:00,42.0,27.9,29.95,SSW,202,2.0,2.0,57,0.01,,FEW035,0.02,VWS V14.01,2013-01-06 18:35:00,
2013-01-06 13:36:00,42.0,27.9,29.95,SSW,202,0.0,6.0,57,0.01,,FEW035,0.02,VWS V14.01,2013-01-06 18:36:00,
2013-01-06 13:39:00,42.0,28.3,29.95,West,270,2.0,7.0,58,0.01,,FEW035,0.02,VWS V14.01,2013-01-06 18:39:00,
2013-01-06 13:40:00,42.0,28.3,29.95,WSW,247,1.0,7.0,58,0.01,,FEW035,0.02,VWS V14.01,2013-01-06 18:40:00,
2013-01-06 13:41:00,41.0,27.4,29.95,West,270,1.0,7.0,58,0.01,,FEW035,0.02,VWS V14.01,2013-01-06 18:41:00,
2013-01-06 13:44:00,41.0,27.4,29.95,NW,315,0.0,7.0,58,0.02,,FEW035,0.03,VWS V14.01,2013-01-06 18:44:00,
2013-01-06 13:45:00,41.0,27.8,29.95,NNW,337,2.0,9.0,59,0.02,,FEW035,0.03,VWS V14.01,2013-01-06 18:45:00,
2013-01-06 13:47:00,41.0,28.2,29.95,NE,45,1.0,9.0,60,0.02,,FEW035,0.03,VWS V14.01,2013-01-06 18:47:00,
2013-01-06 13:49:00,41.0,27.8,29.95,WSW,247,0.0,9.0,59,0.02,,FEW035,0.03,VWS V14.01,2013-01-06 18:49:00,
2013-01-06 13:50:00,41.0,27.8,29.95,SSW,202,2.0,9.0,59,0.02,,FEW035,0.03,VWS V14.01,2013-01-06 18:50:00,
2013-01-06 13:52:00,41.0,27.8,29.95,SW,225,0.0,3.0,59,0.02,,FEW035,0.03,VWS V14.01,2013-01-06 18:52:00,
2013-01-06 13:54:00,41.0,27.8,29.95,SSE,157,0.0,5.0,59,0.02,,FEW035,0.03,VWS V14.01,2013-01-06 18:54:00,
2013-01-06 13:55:00,41.0,27.8,29.95,SW,225,0.0,6.0,59,0.02,,FEW035,0.03,VWS V14.01,2013-01-06 18:55:00,
2013-01-06 13:57:00,41.0,28.2,29.95,NW,315,2.0,8.0,60,0.02,,FEW035,0.03,VWS V14.01,2013-01-06 18:57:00,
2013-01-06 13:59:00,41.0,27.8,29.95,West,270,0.0,8.0,59,0.02,,FEW035,0.03,VWS V14.01,2013-01-06 18:59:00,
2013-01-06 14:00:00,41.0,27.8,29.95,WNW,292,0.0,8.0,59,0.02,,FEW035,0.03,VWS V14.01,2013-01-06 19:00:00,
2013-01-06 14:02:00,41.0,27.8,29.95,SSE,157,0.0,3.0,59,0.02,,FEW035,0.03,VWS V14.01,2013-01-06 19:02:00,
2013-01-06 14:04:00,41.0,28.2,29.95,SSE,157,0.0,3.0,60,0.02,,FEW035,0.03,VWS V14.01,2013-01-06 19:04:00,
2013-01-06 14:05:00,41.0,28.2,29.95,SSW,202,1.0,3.0,60,0.02,,FEW035,0.03,VWS V14.01,2013-01-06 19:05:00,
2013-01-06 14:07:00,41.0,27.8,29.95,WSW,247,2.0,3.0,59,0.03,,FEW035,0.04,VWS V14.01,2013-01-06 19:07:00,
2013-01-06 14:09:00,41.0,27.4,29.95,NNW,337,2.0,6.0,58,0.03,,FEW035,0.04,VWS V14.01,2013-01-06 19:09:00,
2013-01-06 14:10:00,41.0,27.4,29.95,SW,225,0.0,6.0,58,0.03,,FEW035,0.04,VWS V14.01,2013-01-06 19:10:00,
2013-01-06 14:11:00,41.0,27.8,29.95,SW,225,0.0,0.0,59,0.03,,FEW035,0.04,VWS V14.01,2013-01-06 19:11:00,
2013-01-06 14:12:00,41.0,27.8,29.95,West,270,0.0,6.0,59,0.03,,FEW035,0.04,VWS V14.01,2013-01-06 19:12:00,
2013-01-06 14:14:00,42.0,28.3,29.95,SSW,202,0.0,6.0,58,0.03,,FEW035,0.04,VWS V14.01,2013-01-06 19:14:00,
2013-01-06 14:15:00,42.0,28.3,29.95,WSW,247,2.0,6.0,58,0.03,,FEW035,0.04,VWS V14.01,2013-01-06 19:15:00,
2013-01-06 14:16:00,42.0,27.9,29.95,NW,315,0.0,6.0,57,0.03,,FEW035,0.04,VWS V14.01,2013-01-06 19:16:00,
2013-01-06 14:17:00,42.0,28.3,29.95,NW,315,0.0,6.0,58,0.04,,FEW035,0.05,VWS V14.01,2013-01-06 19:17:00,
2013-01-06 14:20:00,42.0,28.3,29.95,SW,225,0.0,6.0,58,0.04,,FEW035,0.05,VWS V14.01,2013-01-06 19:20:00,
2013-01-06 14:21:00,42.0,28.3,29.95,West,270,2.0,2.0,58,0.04,,FEW035,0.05,VWS V14.01,2013-01-06 19:21:00,
2013-01-06 14:23:00,42.0,27.9,29.95,South,180,2.0,3.0,57,0.04,,FEW035,0.05,VWS V14.01,2013-01-06 19:23:00,
2013-01-06 14:25:00,42.0,28.3,29.95,WNW,292,2.0,3.0,58,0.04,,FEW035,0.05,VWS V14.01,2013-01-06 19:25:00,
2013-01-06 14:26:00,41.0,27.4,29.95,WNW,292,0.0,3.0,58,0.04,,FEW035,0.05,VWS V14.01,2013-01-06 19:26:00,
2013-01-06 14:28:00,42.0,28.3,29.95,ENE,67,0.0,3.0,58,0.04,,FEW035,0.05,VWS V14.01,2013-01-06 19:28:00,
2013-01-06 14:30:00,42.0,28.3,29.95,SW,225,2.0,2.0,58,0.03,,FEW035,0.05,VWS V14.01,2013-01-06 19:30:00,
2013-01-06 14:32:00,42.0,28.3,29.95,West,270,2.0,4.0,58,0.03,,FEW035,0.05,VWS V14.01,2013-01-06 19:32:00,
2013-01-06 14:33:00,42.0,28.3,29.95,SSW,202,0.0,4.0,58,0.03,,FEW035,0.05,VWS V14.01,2013-01-06 19:33:00,
2013-01-06 14:35:00,42.0,27.9,29.95,SW,225,1.0,7.0,57,0.03,,CLR,0.05,VWS V14.01,2013-01-06 19:35:00,
2013-01-06 14:37:00,42.0,27.9,29.95,NNE,22,0.0,7.0,57,0.03,,CLR,0.05,VWS V14.01,2013-01-06 19:37:00,
2013-01-06 14:38:00,42.0,28.3,29.95,SW,225,1.0,7.0,58,0.03,,CLR,0.05,VWS V14.01,2013-01-06 19:38:00,
2013-01-06 14:41:00,42.0,27.9,29.95,SSW,202,0.0,0.0,57,0.03,,CLR,0.05,VWS V14.01,2013-01-06 19:41:00,
2013-01-06 14:43:00,42.0,28.3,29.95,SSW,202,2.0,6.0,58,0.03,,CLR,0.06,VWS V14.01,2013-01-06 19:43:00,
2013-01-06 14:46:00,42.0,28.3,29.95,South,180,1.0,6.0,58,0.04,,CLR,0.06,VWS V14.01,2013-01-06 19:46:00,
2013-01-06 14:48:00,42.0,27.9,29.95,SE,135,0.0,6.0,57,0.04,,CLR,0.06,VWS V14.01,2013-01-06 19:48:00,
2013-01-06 14:51:00,42.0,28.3,29.95,SSE,157,0.0,0.0,58,0.03,,CLR,0.06,VWS V14.01,2013-01-06 19:51:00,
2013-01-06 14:53:00,42.0,28.3,29.95,WSW,247,0.0,2.0,58,0.03,,CLR,0.06,VWS V14.01,2013-01-06 19:53:00,
2013-01-06 14:56:00,41.0,27.4,29.95,WNW,292,0.0,4.0,58,0.03,,CLR,0.06,VWS V14.01,2013-01-06 19:56:00,
2013-01-06 14:59:00,41.0,27.4,29.95,WNW,292,0.0,4.0,58,0.03,,CLR,0.06,VWS V14.01,2013-01-06 19:59:00,
2013-01-06 15:02:00,41.0,27.8,29.95,WSW,247,1.0,6.0,59,0.03,,CLR,0.06,VWS V14.01,2013-01-06 20:02:00,
2013-01-06 15:05:00,41.0,27.4,29.95,WSW,247,0.0,6.0,58,0.03,,CLR,0.06,VWS V14.01,2013-01-06 20:05:00,
2013-01-06 15:08:00,41.0,27.4,29.95,SW,225,0.0,6.0,58,0.03,,CLR,0.06,VWS V14.01,2013-01-06 20:08:00,
2013-01-06 15:11:00,41.0,27.8,29.94,NW,315,0.0,0.0,59,0.02,,CLR,0.06,VWS V14.01,2013-01-06 20:11:00,
2013-01-06 15:13:00,41.0,27.8,29.94,WSW,247,0.0,2.0,59,0.02,,CLR,0.06,VWS V14.01,2013-01-06 20:13:00,
2013-01-06 15:14:00,41.0,27.8,29.94,WSW,247,0.0,2.0,59,0.02,,CLR,0.06,VWS V14.01,2013-01-06 20:14:00,
2013-01-06 15:16:00,41.0,27.8,29.94,WSW,247,0.0,2.0,59,0.02,,CLR,0.06,VWS V14.01,2013-01-06 20:16:00,
2013-01-06 15:18:00,41.0,27.8,29.94,West,270,1.0,2.0,59,0.02,,CLR,0.06,VWS V14.01,2013-01-06 20:18:00,
2013-01-06 15:19:00,41.0,27.8,29.94,WSW,247,0.0,2.0,59,0.02,,CLR,0.06,VWS V14.01,2013-01-06 20:19:00,
2013-01-06 15:21:00,41.0,27.8,29.94,SW,225,0.0,0.0,59,0.01,,CLR,0.06,VWS V14.01,2013-01-06 20:21:00,
2013-01-06 15:23:00,41.0,27.8,29.94,NW,315,0.0,2.0,59,0.02,,CLR,0.07,VWS V14.01,2013-01-06 20:23:00,
2013-01-06 15:24:00,41.0,28.2,29.94,NW,315,0.0,2.0,60,0.02,,CLR,0.07,VWS V14.01,2013-01-06 20:24:00,
2013-01-06 15:26:00,41.0,28.2,29.94,NW,315,0.0,2.0,60,0.02,,CLR,0.07,VWS V14.01,2013-01-06 20:26:00,
2013-01-06 15:28:00,41.0,28.2,29.94,NW,315,0.0,2.0,60,0.02,,CLR,0.07,VWS V14.01,2013-01-06 20:28:00,
2013-01-06 15:29:00,41.0,28.6,29.94,NW,315,0.0,2.0,61,0.02,,CLR,0.07,VWS V14.01,2013-01-06 20:29:00,
2013-01-06 15:31:00,40.0,27.6,29.94,NW,315,0.0,0.0,61,0.02,,CLR,0.07,VWS V14.01,2013-01-06 20:31:00,
2013-01-06 15:33:00,40.0,27.6,29.94,NW,315,0.0,0.0,61,0.02,,CLR,0.07,VWS V14.01,2013-01-06 20:33:00,
2013-01-06 15:34:00,40.0,27.6,29.94,NW,315,0.0,0.0,61,0.02,,CLR,0.07,VWS V14.01,2013-01-06 20:34:00,
2013-01-06 15:36:00,40.0,28.0,29.94,NW,315,0.0,0.0,62,0.02,,CLR,0.07,VWS V14.01,2013-01-06 20:36:00,
2013-01-06 15:37:00,40.0,27.6,29.94,NW,315,0.0,0.0,61,0.02,,CLR,0.07,VWS V14.01,2013-01-06 20:37:00,
2013-01-06 15:38:00,40.0,27.6,29.94,West,270,0.0,1.0,61,0.02,,CLR,0.07,VWS V14.01,2013-01-06 20:38:00,
2013-01-06 15:39:00,40.0,27.2,29.94,WSW,247,0.0,1.0,60,0.02,,CLR,0.07,VWS V14.01,2013-01-06 20:39:00,
2013-01-06 15:41:00,40.0,27.6,29.94,WSW,247,0.0,0.0,61,0.02,,CLR,0.07,VWS V14.01,2013-01-06 20:41:00,
2013-01-06 15:42:00,40.0,27.2,29.94,WSW,247,2.0,2.0,60,0.02,,CLR,0.07,VWS V14.01,2013-01-06 20:42:00,
2013-01-06 15:44:00,40.0,27.6,29.94,SSE,157,1.0,2.0,61,0.02,,CLR,0.07,VWS V14.01,2013-01-06 20:44:00,
2013-01-06 15:46:00,40.0,27.6,29.93,NNW,337,0.0,4.0,61,0.02,,CLR,0.07,VWS V14.01,2013-01-06 20:46:00,
2013-01-06 15:48:00,40.0,27.6,29.93,WSW,247,0.0,4.0,61,0.02,,CLR,0.07,VWS V14.01,2013-01-06 20:48:00,
2013-01-06 15:49:00,40.0,27.6,29.93,WSW,247,0.0,4.0,61,0.02,,CLR,0.07,VWS V14.01,2013-01-06 20:49:00,
2013-01-06 15:51:00,40.0,28.0,29.94,WSW,247,0.0,0.0,62,0.01,,FEW037,0.07,VWS V14.01,2013-01-06 20:51:00,
2013-01-06 15:53:00,39.0,27.1,29.94,WSW,247,1.0,2.0,62,0.01,,FEW037,0.07,VWS V14.01,2013-01-06 20:53:00,
2013-01-06 15:54:00,39.0,27.1,29.94,West,270,2.0,3.0,62,0.01,,FEW037,0.07,VWS V14.01,2013-01-06 20:54:00,
2013-01-06 15:56:00,39.0,27.5,29.94,WSW,247,0.0,3.0,63,0.01,,FEW037,0.07,VWS V14.01,2013-01-06 20:56:00,
2013-01-06 15:58:00,39.0,27.5,29.94,WSW,247,0.0,3.0,63,0.01,,FEW037,0.07,VWS V14.01,2013-01-06 20:58:00,
2013-01-06 15:59:00,39.0,27.5,29.94,SW,225,0.0,3.0,63,0.01,,FEW037,0.07,VWS V14.01,2013-01-06 20:59:00,
2013-01-06 16:00:00,39.0,27.5,29.93,SSE,157,0.0,3.0,63,0.01,,FEW037,0.07,VWS V14.01,2013-01-06 21:00:00,
2013-01-06 16:01:00,39.0,27.5,29.93,SSE,157,0.0,0.0,63,0.01,,FEW037,0.07,VWS V14.01,2013-01-06 21:01:00,
2013-01-06 16:03:00,39.0,27.9,29.93,SW,225,0.0,2.0,64,0.01,,FEW037,0.07,VWS V14.01,2013-01-06 21:03:00,
2013-01-06 16:04:00,39.0,27.9,29.93,West,270,0.0,2.0,64,0.01,,FEW037,0.07,VWS V14.01,2013-01-06 21:04:00,
2013-01-06 16:05:00,39.0,27.9,29.94,SW,225,0.0,2.0,64,0.01,,FEW037,0.07,VWS V14.01,2013-01-06 21:05:00,
2013-01-06 16:06:00,39.0,27.9,29.94,SW,225,0.0,2.0,64,0.01,,FEW037,0.07,VWS V14.01,2013-01-06 21:06:00,
2013-01-06 16:09:00,38.0,26.9,29.94,SW,225,0.0,2.0,64,0.01,,FEW037,0.07,VWS V14.01,2013-01-06 21:09:00,
2013-01-06 16:10:00,38.0,26.9,29.94,SW,225,0.0,0.0,64,0.01,,FEW037,0.07,VWS V14.01,2013-01-06 21:10:00,
2013-01-06 16:11:00,38.0,26.9,29.94,SW,225,0.0,0.0,64,0.01,,FEW037,0.07,VWS V14.01,2013-01-06 21:11:00,
2013-01-06 16:14:00,38.0,27.3,29.94,SW,225,0.0,0.0,65,0.01,,FEW037,0.07,VWS V14.01,2013-01-06 21:14:00,
2013-01-06 16:15:00,38.0,27.3,29.94,SW,225,0.0,0.0,65,0.01,,FEW037,0.07,VWS V14.01,2013-01-06 21:15:00,
2013-01-06 16:16:00,38.0,27.3,29.94,SW,225,0.0,0.0,65,0.01,,FEW037,0.07,VWS V14.01,2013-01-06 21:16:00,
2013-01-06 16:19:00,38.0,27.7,29.94,SW,225,0.0,0.0,66,0.01,,FEW037,0.07,VWS V14.01,2013-01-06 21:19:00,
2013-01-06 16:20:00,38.0,27.7,29.94,SW,225,0.0,0.0,66,0.01,,FEW037,0.07,VWS V14.01,2013-01-06 21:20:00,
2013-01-06 16:21:00,37.0,26.3,29.94,SW,225,0.0,0.0,65,0.01,,FEW037,0.07,VWS V14.01,2013-01-06 21:21:00,
2013-01-06 16:24:00,37.0,26.7,29.94,SW,225,0.0,0.0,66,0.01,,FEW037,0.07,VWS V14.01,2013-01-06 21:24:00,
2013-01-06 16:25:00,37.0,26.7,29.94,SW,225,0.0,0.0,66,0.01,,FEW037,0.07,VWS V14.01,2013-01-06 21:25:00,
2013-01-06 16:26:00,37.0,26.7,29.94,SW,225,0.0,0.0,66,0.01,,FEW037,0.07,VWS V14.01,2013-01-06 21:26:00,
2013-01-06 16:29:00,36.0,26.5,29.94,SW,225,0.0,0.0,68,0.01,,FEW037,0.07,VWS V14.01,2013-01-06 21:29:00,
2013-01-06 16:30:00,37.0,27.4,29.94,SW,225,0.0,0.0,68,0.01,,FEW037,0.07,VWS V14.01,2013-01-06 21:30:00,
2013-01-06 16:31:00,36.0,26.5,29.94,SW,225,0.0,0.0,68,0.00,,FEW037,0.07,VWS V14.01,2013-01-06 21:31:00,
2013-01-06 16:34:00,36.0,26.5,29.94,SW,225,0.0,0.0,68,0.00,,FEW037,0.07,VWS V14.01,2013-01-06 21:34:00,
2013-01-06 16:35:00,36.0,26.8,29.94,SW,225,0.0,0.0,69,0.00,,CLR,0.07,VWS V14.01,2013-01-06 21:35:00,
2013-01-06 16:36:00,36.0,26.8,29.94,SW,225,0.0,0.0,69,0.00,,CLR,0.07,VWS V14.01,2013-01-06 21:36:00,
2013-01-06 16:39:00,36.0,26.8,29.94,SW,225,0.0,0.0,69,0.00,,CLR,0.07,VWS V14.01,2013-01-06 21:39:00,
2013-01-06 16:40:00,36.0,26.8,29.93,SW,225,0.0,0.0,69,0.00,,CLR,0.07,VWS V14.01,2013-01-06 21:40:00,
2013-01-06 16:41:00,35.0,25.9,29.93,SW,225,0.0,0.0,69,0.00,,CLR,0.07,VWS V14.01,2013-01-06 21:41:00,
2013-01-06 16:42:00,35.0,25.9,29.93,SW,225,0.0,0.0,69,0.00,,CLR,0.07,VWS V14.01,2013-01-06 21:42:00,
2013-01-06 16:44:00,35.0,26.2,29.93,SW,225,0.0,0.0,70,0.00,,CLR,0.07,VWS V14.01,2013-01-06 21:44:00,
2013-01-06 16:45:00,35.0,26.2,29.94,SW,225,0.0,0.0,70,0.00,,CLR,0.07,VWS V14.01,2013-01-06 21:45:00,
2013-01-06 16:46:00,35.0,26.6,29.94,SW,225,0.0,0.0,71,0.00,,CLR,0.07,VWS V14.01,2013-01-06 21:46:00,
2013-01-06 16:47:00,35.0,26.6,29.94,SW,225,0.0,0.0,71,0.00,,CLR,0.07,VWS V14.01,2013-01-06 21:47:00,
2013-01-06 16:49:00,34.0,25.9,29.94,SW,225,0.0,0.0,72,0.00,,CLR,0.07,VWS V14.01,2013-01-06 21:49:00,
2013-01-06 16:50:00,34.0,26.3,29.94,SW,225,0.0,0.0,73,0.00,,CLR,0.07,VWS V14.01,2013-01-06 21:50:00,
2013-01-06 16:51:00,34.0,26.3,29.94,SW,225,0.0,0.0,73,0.00,,CLR,0.07,VWS V14.01,2013-01-06 21:51:00,
2013-01-06 16:52:00,34.0,26.3,29.94,SW,225,0.0,0.0,73,0.00,,CLR,0.07,VWS V14.01,2013-01-06 21:52:00,
2013-01-06 16:54:00,34.0,26.6,29.94,SW,225,0.0,0.0,74,0.00,,CLR,0.07,VWS V14.01,2013-01-06 21:54:00,
2013-01-06 16:55:00,34.0,26.6,29.94,SW,225,0.0,0.0,74,0.00,,CLR,0.07,VWS V14.01,2013-01-06 21:55:00,
2013-01-06 16:56:00,34.0,26.6,29.94,SW,225,0.0,0.0,74,0.00,,CLR,0.07,VWS V14.01,2013-01-06 21:56:00,
2013-01-06 16:57:00,34.0,26.6,29.94,SW,225,0.0,0.0,74,0.00,,CLR,0.07,VWS V14.01,2013-01-06 21:57:00,
2013-01-06 16:59:00,33.0,26.0,29.94,SW,225,0.0,0.0,75,0.00,,CLR,0.07,VWS V14.01,2013-01-06 21:59:00,
2013-01-06 17:00:00,33.0,26.0,29.94,SW,225,0.0,0.0,75,0.00,,CLR,0.07,VWS V14.01,2013-01-06 22:00:00,
2013-01-06 17:02:00,33.0,26.0,29.94,SW,225,0.0,0.0,75,0.00,,CLR,0.07,VWS V14.01,2013-01-06 22:02:00,
2013-01-06 17:04:00,33.0,26.3,29.94,SW,225,0.0,0.0,76,0.00,,CLR,0.07,VWS V14.01,2013-01-06 22:04:00,
2013-01-06 17:06:00,33.0,26.3,29.94,SW,225,0.0,0.0,76,0.00,,CLR,0.07,VWS V14.01,2013-01-06 22:06:00,
2013-01-06 17:07:00,33.0,26.3,29.94,SW,225,0.0,0.0,76,0.00,,CLR,0.07,VWS V14.01,2013-01-06 22:07:00,
2013-01-06 17:09:00,32.0,25.6,29.94,SW,225,0.0,0.0,77,0.00,,CLR,0.07,VWS V14.01,2013-01-06 22:09:00,
2013-01-06 17:11:00,32.0,25.6,29.94,SW,225,0.0,0.0,77,0.00,,CLR,0.07,VWS V14.01,2013-01-06 22:11:00,
2013-01-06 17:12:00,32.0,25.9,29.94,SW,225,0.0,0.0,78,0.00,,CLR,0.07,VWS V14.01,2013-01-06 22:12:00,
2013-01-06 17:14:00,32.0,26.2,29.94,SW,225,0.0,0.0,79,0.00,,CLR,0.07,VWS V14.01,2013-01-06 22:14:00,
2013-01-06 17:16:00,32.0,26.2,29.94,SW,225,0.0,0.0,79,0.00,,CLR,0.07,VWS V14.01,2013-01-06 22:16:00,
2013-01-06 17:17:00,32.0,26.2,29.94,SW,225,0.0,0.0,79,0.00,,CLR,0.07,VWS V14.01,2013-01-06 22:17:00,
2013-01-06 17:18:00,32.0,26.5,29.94,SW,225,0.0,0.0,80,0.00,,CLR,0.07,VWS V14.01,2013-01-06 22:18:00,
2013-01-06 17:19:00,32.0,26.5,29.94,SW,225,0.0,0.0,80,0.00,,CLR,0.07,VWS V14.01,2013-01-06 22:19:00,
2013-01-06 17:21:00,31.0,25.6,29.94,SW,225,0.0,0.0,80,0.00,,CLR,0.07,VWS V14.01,2013-01-06 22:21:00,
2013-01-06 17:22:00,31.0,25.9,29.94,SW,225,0.0,0.0,81,0.00,,CLR,0.07,VWS V14.01,2013-01-06 22:22:00,
2013-01-06 17:23:00,31.0,25.9,29.94,SW,225,0.0,0.0,81,0.00,,CLR,0.07,VWS V14.01,2013-01-06 22:23:00,
2013-01-06 17:25:00,31.0,25.9,29.94,SW,225,0.0,0.0,81,0.00,,CLR,0.07,VWS V14.01,2013-01-06 22:25:00,
2013-01-06 17:26:00,31.0,25.9,29.94,SW,225,0.0,0.0,81,0.00,,CLR,0.07,VWS V14.01,2013-01-06 22:26:00,
2013-01-06 17:27:00,31.0,25.9,29.94,SW,225,0.0,0.0,81,0.00,,CLR,0.07,VWS V14.01,2013-01-06 22:27:00,
2013-01-06 17:28:00,31.0,25.9,29.94,SW,225,0.0,0.0,81,0.00,,CLR,0.07,VWS V14.01,2013-01-06 22:28:00,
2013-01-06 17:30:00,31.0,25.9,29.94,SW,225,0.0,0.0,81,0.00,,CLR,0.07,VWS V14.01,2013-01-06 22:30:00,
2013-01-06 17:31:00,30.0,24.3,29.94,SW,225,0.0,0.0,79,0.00,,CLR,0.07,VWS V14.01,2013-01-06 22:31:00,
2013-01-06 17:32:00,30.0,24.9,29.94,SW,225,0.0,0.0,81,0.00,,CLR,0.07,VWS V14.01,2013-01-06 22:32:00,
2013-01-06 17:33:00,30.0,24.9,29.94,SW,225,0.0,0.0,81,0.00,,CLR,0.07,VWS V14.01,2013-01-06 22:33:00,
2013-01-06 17:36:00,30.0,25.2,29.94,SW,225,0.0,0.0,82,0.00,,CLR,0.07,VWS V14.01,2013-01-06 22:36:00,
2013-01-06 17:37:00,30.0,25.2,29.94,SW,225,0.0,0.0,82,0.00,,CLR,0.07,VWS V14.01,2013-01-06 22:37:00,
2013-01-06 17:38:00,30.0,25.2,29.94,SW,225,0.0,0.0,82,0.00,,CLR,0.07,VWS V14.01,2013-01-06 22:38:00,
2013-01-06 17:41:00,30.0,25.2,29.94,SW,225,0.0,0.0,82,0.00,,CLR,0.07,VWS V14.01,2013-01-06 22:41:00,
2013-01-06 17:42:00,29.0,24.5,29.94,SW,225,0.0,0.0,83,0.00,,CLR,0.07,VWS V14.01,2013-01-06 22:42:00,
2013-01-06 17:43:00,29.0,24.5,29.94,SW,225,0.0,0.0,83,0.00,,CLR,0.07,VWS V14.01,2013-01-06 22:43:00,
2013-01-06 17:46:00,29.0,24.8,29.94,SW,225,0.0,0.0,84,0.00,,CLR,0.07,VWS V14.01,2013-01-06 22:46:00,
2013-01-06 17:47:00,29.0,25.1,29.94,SW,225,0.0,0.0,85,0.00,,CLR,0.07,VWS V14.01,2013-01-06 22:47:00,
2013-01-06 17:48:00,29.0,25.1,29.94,SW,225,0.0,0.0,85,0.00,,CLR,0.07,VWS V14.01,2013-01-06 22:48:00,
2013-01-06 17:51:00,29.0,25.1,29.94,SW,225,0.0,0.0,85,0.00,,CLR,0.07,VWS V14.01,2013-01-06 22:51:00,
2013-01-06 17:53:00,29.0,25.1,29.94,SW,225,0.0,0.0,85,0.00,,CLR,0.07,VWS V14.01,2013-01-06 22:53:00,
2013-01-06 17:56:00,29.0,25.6,29.94,SW,225,0.0,0.0,87,0.00,,CLR,0.07,VWS V14.01,2013-01-06 22:56:00,
2013-01-06 17:58:00,29.0,25.6,29.94,SW,225,0.0,0.0,87,0.00,,CLR,0.07,VWS V14.01,2013-01-06 22:58:00,
2013-01-06 17:59:00,29.0,25.6,29.94,SW,225,0.0,0.0,87,0.00,,CLR,0.07,VWS V14.01,2013-01-06 22:59:00,
2013-01-06 18:01:00,29.0,25.4,29.94,SW,225,0.0,0.0,86,0.00,,CLR,0.07,VWS V14.01,2013-01-06 23:01:00,
2013-01-06 18:03:00,29.0,25.6,29.94,SW,225,0.0,0.0,87,0.00,,CLR,0.07,VWS V14.01,2013-01-06 23:03:00,
2013-01-06 18:04:00,29.0,25.9,29.94,SW,225,0.0,0.0,88,0.00,,CLR,0.07,VWS V14.01,2013-01-06 23:04:00,
2013-01-06 18:06:00,29.0,26.2,29.93,SW,225,0.0,0.0,89,0.00,,CLR,0.07,VWS V14.01,2013-01-06 23:06:00,
2013-01-06 18:08:00,29.0,26.2,29.93,SW,225,0.0,0.0,89,0.00,,CLR,0.07,VWS V14.01,2013-01-06 23:08:00,
2013-01-06 18:09:00,29.0,26.2,29.93,SW,225,0.0,0.0,89,0.00,,CLR,0.07,VWS V14.01,2013-01-06 23:09:00,
2013-01-06 18:11:00,29.0,26.2,29.93,SW,225,0.0,0.0,89,0.00,,CLR,0.07,VWS V14.01,2013-01-06 23:11:00,
2013-01-06 18:13:00,29.0,26.2,29.93,SW,225,0.0,0.0,89,0.00,,CLR,0.07,VWS V14.01,2013-01-06 23:13:00,
2013-01-06 18:14:00,29.0,26.2,29.93,SW,225,0.0,0.0,89,0.00,,CLR,0.07,VWS V14.01,2013-01-06 23:14:00,
2013-01-06 18:16:00,29.0,26.2,29.93,SW,225,0.0,0.0,89,0.00,,CLR,0.07,VWS V14.01,2013-01-06 23:16:00,
2013-01-06 18:17:00,29.0,26.2,29.93,SW,225,0.0,0.0,89,0.00,,CLR,0.07,VWS V14.01,2013-01-06 23:17:00,
2013-01-06 18:18:00,29.0,26.2,29.93,SW,225,0.0,0.0,89,0.00,,CLR,0.07,VWS V14.01,2013-01-06 23:18:00,
2013-01-06 18:19:00,29.0,26.2,29.93,SW,225,0.0,0.0,89,0.00,,CLR,0.07,VWS V14.01,2013-01-06 23:19:00,
2013-01-06 18:21:00,29.0,26.2,29.93,SW,225,0.0,0.0,89,0.00,,CLR,0.07,VWS V14.01,2013-01-06 23:21:00,
2013-01-06 18:22:00,29.0,26.2,29.93,SW,225,0.0,0.0,89,0.00,,CLR,0.07,VWS V14.01,2013-01-06 23:22:00,
2013-01-06 18:23:00,29.0,26.2,29.93,SW,225,0.0,0.0,89,0.00,,CLR,0.07,VWS V14.01,2013-01-06 23:23:00,
2013-01-06 18:24:00,29.0,26.2,29.93,SW,225,0.0,0.0,89,0.00,,CLR,0.07,VWS V14.01,2013-01-06 23:24:00,
2013-01-06 18:27:00,29.0,26.2,29.93,SW,225,0.0,0.0,89,0.00,,CLR,0.07,VWS V14.01,2013-01-06 23:27:00,
2013-01-06 18:29:00,29.0,26.2,29.93,SW,225,0.0,0.0,89,0.00,,CLR,0.07,VWS V14.01,2013-01-06 23:29:00,
2013-01-06 18:32:00,29.0,26.2,29.93,SW,225,0.0,0.0,89,0.00,,CLR,0.07,VWS V14.01,2013-01-06 23:32:00,
2013-01-06 18:34:00,29.0,26.4,29.93,SW,225,0.0,0.0,90,0.00,,CLR,0.07,VWS V14.01,2013-01-06 23:34:00,
2013-01-06 18:37:00,29.0,26.2,29.94,SW,225,0.0,0.0,89,0.00,,BKN100,0.07,VWS V14.01,2013-01-06 23:37:00,
2013-01-06 18:39:00,29.0,26.2,29.94,SW,225,0.0,0.0,89,0.00,,BKN100,0.07,VWS V14.01,2013-01-06 23:39:00,
2013-01-06 18:42:00,29.0,26.2,29.94,SW,225,0.0,0.0,89,0.00,,BKN100,0.07,VWS V14.01,2013-01-06 23:42:00,
2013-01-06 18:44:00,29.0,26.2,29.94,SW,225,0.0,0.0,89,0.00,,BKN100,0.07,VWS V14.01,2013-01-06 23:44:00,
2013-01-06 18:45:00,29.0,26.2,29.94,SW,225,0.0,0.0,89,0.00,,BKN100,0.07,VWS V14.01,2013-01-06 23:45:00,
2013-01-06 18:47:00,29.0,26.2,29.94,SW,225,0.0,0.0,89,0.00,,BKN100,0.07,VWS V14.01,2013-01-06 23:47:00,
2013-01-06 18:49:00,29.0,26.2,29.94,SW,225,0.0,0.0,89,0.00,,BKN100,0.07,VWS V14.01,2013-01-06 23:49:00,
2013-01-06 18:50:00,29.0,26.2,29.94,SW,225,0.0,0.0,89,0.00,,BKN100,0.07,VWS V14.01,2013-01-06 23:50:00,
2013-01-06 18:52:00,29.0,26.2,29.94,SW,225,0.0,0.0,89,0.00,,BKN100,0.07,VWS V14.01,2013-01-06 23:52:00,
2013-01-06 18:54:00,29.0,26.2,29.94,SW,225,0.0,0.0,89,0.00,,BKN100,0.07,VWS V14.01,2013-01-06 23:54:00,
2013-01-06 18:55:00,29.0,26.2,29.94,SW,225,0.0,0.0,89,0.00,,BKN100,0.07,VWS V14.01,2013-01-06 23:55:00,
2013-01-06 18:57:00,29.0,26.2,29.94,SW,225,0.0,0.0,89,0.00,,BKN100,0.07,VWS V14.01,2013-01-06 23:57:00,
2013-01-06 18:59:00,29.0,26.2,29.94,SW,225,0.0,0.0,89,0.00,,BKN100,0.07,VWS V14.01,2013-01-06 23:59:00,
2013-01-06 19:00:00,29.0,26.2,29.94,SW,225,0.0,0.0,89,0.00,,BKN100,0.07,VWS V14.01,2013-01-07 00:00:00,
2013-01-06 19:02:00,29.0,26.2,29.94,SW,225,0.0,0.0,89,0.00,,BKN100,0.07,VWS V14.01,2013-01-07 00:02:00,
2013-01-06 19:04:00,29.0,26.4,29.94,SW,225,0.0,0.0,90,0.00,,BKN100,0.07,VWS V14.01,2013-01-07 00:04:00,
2013-01-06 19:05:00,29.0,26.2,29.94,SW,225,0.0,0.0,89,0.00,,OVC100,0.07,VWS V14.01,2013-01-07 00:05:00,
2013-01-06 19:07:00,29.0,26.2,29.94,SW,225,0.0,0.0,89,0.00,,OVC100,0.07,VWS V14.01,2013-01-07 00:07:00,
2013-01-06 19:09:00,29.0,26.2,29.94,SW,225,0.0,0.0,89,0.00,,OVC100,0.07,VWS V14.01,2013-01-07 00:09:00,
2013-01-06 19:10:00,30.0,27.2,29.94,SW,225,0.0,0.0,89,0.00,,OVC100,0.07,VWS V14.01,2013-01-07 00:10:00,
2013-01-06 19:12:00,30.0,27.2,29.94,SW,225,0.0,0.0,89,0.00,,OVC100,0.07,VWS V14.01,2013-01-07 00:12:00,
2013-01-06 19:13:00,30.0,27.2,29.94,SW,225,0.0,0.0,89,0.00,,OVC100,0.07,VWS V14.01,2013-01-07 00:13:00,
2013-01-06 19:14:00,30.0,26.9,29.94,SW,225,0.0,0.0,88,0.00,,OVC100,0.07,VWS V14.01,2013-01-07 00:14:00,
2013-01-06 19:15:00,30.0,26.9,29.94,SW,225,0.0,0.0,88,0.00,,OVC100,0.07,VWS V14.01,2013-01-07 00:15:00,
2013-01-06 19:18:00,30.0,26.9,29.94,SW,225,0.0,0.0,88,0.00,,OVC100,0.07,VWS V14.01,2013-01-07 00:18:00,
2013-01-06 19:20:00,30.0,27.2,29.94,SW,225,0.0,0.0,89,0.00,,OVC100,0.07,VWS V14.01,2013-01-07 00:20:00,
2013-01-06 19:23:00,30.0,27.2,29.94,SW,225,0.0,0.0,89,0.00,,OVC100,0.07,VWS V14.01,2013-01-07 00:23:00,
2013-01-06 19:25:00,30.0,27.2,29.94,SW,225,0.0,0.0,89,0.00,,OVC100,0.07,VWS V14.01,2013-01-07 00:25:00,
2013-01-06 19:28:00,30.0,27.2,29.94,SW,225,0.0,0.0,89,0.00,,OVC100,0.07,VWS V14.01,2013-01-07 00:28:00,
2013-01-06 19:30:00,30.0,26.9,29.94,SW,225,0.0,0.0,88,0.00,,OVC100,0.07,VWS V14.01,2013-01-07 00:30:00,
2013-01-06 19:33:00,30.0,26.9,29.94,SW,225,0.0,0.0,88,0.00,,OVC100,0.07,VWS V14.01,2013-01-07 00:33:00,
2013-01-06 19:35:00,30.0,26.9,29.94,SW,225,0.0,0.0,88,0.00,,OVC100,0.07,VWS V14.01,2013-01-07 00:35:00,
2013-01-06 19:38:00,30.0,26.9,29.94,SW,225,0.0,0.0,88,0.00,,OVC100,0.07,VWS V14.01,2013-01-07 00:38:00,
2013-01-06 19:40:00,30.0,26.9,29.94,SW,225,0.0,0.0,88,0.00,,OVC100,0.07,VWS V14.01,2013-01-07 00:40:00,
2013-01-06 19:41:00,30.0,26.9,29.94,SW,225,0.0,0.0,88,0.00,,OVC100,0.07,VWS V14.01,2013-01-07 00:41:00,
2013-01-06 19:43:00,30.0,27.2,29.94,SW,225,0.0,0.0,89,0.00,,OVC100,0.07,VWS V14.01,2013-01-07 00:43:00,
2013-01-06 19:45:00,30.0,27.2,29.95,SW,225,0.0,0.0,89,0.00,,OVC100,0.07,VWS V14.01,2013-01-07 00:45:00,
2013-01-06 19:46:00,30.0,27.2,29.95,SW,225,0.0,0.0,89,0.00,,OVC100,0.07,VWS V14.01,2013-01-07 00:46:00,
2013-01-06 19:48:00,30.0,27.2,29.95,SW,225,0.0,0.0,89,0.00,,OVC100,0.07,VWS V14.01,2013-01-07 00:48:00,
2013-01-06 19:50:00,30.0,27.2,29.95,SW,225,0.0,0.0,89,0.00,,OVC100,0.07,VWS V14.01,2013-01-07 00:50:00,
2013-01-06 19:51:00,30.0,27.2,29.95,SW,225,0.0,0.0,89,0.00,,OVC100,0.07,VWS V14.01,2013-01-07 00:51:00,
2013-01-06 19:53:00,30.0,27.4,29.95,SW,225,0.0,0.0,90,0.00,,OVC100,0.07,VWS V14.01,2013-01-07 00:53:00,
2013-01-06 19:55:00,30.0,27.4,29.95,SW,225,0.0,0.0,90,0.00,,OVC100,0.07,VWS V14.01,2013-01-07 00:55:00,
2013-01-06 19:56:00,30.0,27.4,29.95,SW,225,0.0,0.0,90,0.00,,OVC100,0.07,VWS V14.01,2013-01-07 00:56:00,
2013-01-06 19:58:00,30.0,27.2,29.95,SW,225,0.0,0.0,89,0.00,,OVC100,0.07,VWS V14.01,2013-01-07 00:58:00,
2013-01-06 19:59:00,30.0,27.2,29.95,SW,225,0.0,0.0,89,0.00,,OVC100,0.07,VWS V14.01,2013-01-07 00:59:00,
2013-01-06 20:00:00,30.0,27.2,29.95,SW,225,0.0,0.0,89,0.00,,OVC100,0.07,VWS V14.01,2013-01-07 01:00:00,
2013-01-06 20:01:00,30.0,27.2,29.95,SW,225,0.0,0.0,89,0.00,,OVC100,0.07,VWS V14.01,2013-01-07 01:01:00,
2013-01-06 20:04:00,30.0,27.2,29.95,SW,225,0.0,0.0,89,0.00,,OVC100,0.07,VWS V14.01,2013-01-07 01:04:00,
2013-01-06 20:06:00,30.0,27.2,29.95,SW,225,0.0,0.0,89,0.00,,OVC100,0.07,VWS V14.01,2013-01-07 01:06:00,
2013-01-06 20:09:00,30.0,27.2,29.95,SW,225,0.0,0.0,89,0.00,,OVC100,0.07,VWS V14.01,2013-01-07 01:09:00,
2013-01-06 20:11:00,31.0,28.1,29.95,SW,225,0.0,0.0,89,0.00,,OVC100,0.07,VWS V14.01,2013-01-07 01:11:00,
2013-01-06 20:14:00,31.0,28.1,29.95,SW,225,0.0,0.0,89,0.00,,OVC100,0.07,VWS V14.01,2013-01-07 01:14:00,
2013-01-06 20:16:00,31.0,28.1,29.95,SW,225,0.0,0.0,89,0.00,,OVC100,0.07,VWS V14.01,2013-01-07 01:16:00,
2013-01-06 20:19:00,31.0,28.1,29.95,SW,225,0.0,0.0,89,0.00,,OVC100,0.07,VWS V14.01,2013-01-07 01:19:00,
2013-01-06 20:21:00,31.0,28.1,29.95,SW,225,0.0,0.0,89,0.00,,OVC100,0.07,VWS V14.01,2013-01-07 01:21:00,
2013-01-06 20:24:00,31.0,28.1,29.95,SW,225,0.0,0.0,89,0.00,,OVC100,0.07,VWS V14.01,2013-01-07 01:24:00,
2013-01-06 20:26:00,31.0,28.1,29.95,SW,225,0.0,0.0,89,0.00,,OVC100,0.07,VWS V14.01,2013-01-07 01:26:00,
2013-01-06 20:29:00,31.0,28.1,29.95,SW,225,0.0,0.0,89,0.00,,OVC100,0.07,VWS V14.01,2013-01-07 01:29:00,
2013-01-06 20:31:00,31.0,28.1,29.95,SW,225,0.0,0.0,89,0.00,,OVC100,0.07,VWS V14.01,2013-01-07 01:31:00,
2013-01-06 20:34:00,31.0,28.1,29.95,SW,225,0.0,0.0,89,0.00,,OVC100,0.07,VWS V14.01,2013-01-07 01:34:00,
2013-01-06 20:35:00,31.0,27.9,29.94,SW,225,0.0,0.0,88,0.00,,OVC100,0.07,VWS V14.01,2013-01-07 01:35:00,
2013-01-06 20:36:00,31.0,27.9,29.94,SW,225,0.0,0.0,88,0.00,,OVC100,0.07,VWS V14.01,2013-01-07 01:36:00,
2013-01-06 20:39:00,31.0,28.1,29.94,SW,225,0.0,0.0,89,0.00,,OVC100,0.07,VWS V14.01,2013-01-07 01:39:00,
2013-01-06 20:40:00,31.0,28.1,29.94,SW,225,0.0,0.0,89,0.00,,OVC100,0.07,VWS V14.01,2013-01-07 01:40:00,
2013-01-06 20:41:00,31.0,27.9,29.94,SW,225,0.0,0.0,88,0.00,,OVC100,0.07,VWS V14.01,2013-01-07 01:41:00,
2013-01-06 20:44:00,31.0,27.9,29.94,SW,225,0.0,0.0,88,0.00,,OVC100,0.07,VWS V14.01,2013-01-07 01:44:00,
2013-01-06 20:45:00,31.0,27.9,29.94,SW,225,0.0,0.0,88,0.00,,OVC100,0.07,VWS V14.01,2013-01-07 01:45:00,
2013-01-06 20:46:00,31.0,27.9,29.94,SW,225,0.0,0.0,88,0.00,,OVC100,0.07,VWS V14.01,2013-01-07 01:46:00,
2013-01-06 20:49:00,31.0,27.9,29.94,SW,225,0.0,0.0,88,0.00,,OVC100,0.07,VWS V14.01,2013-01-07 01:49:00,
2013-01-06 20:50:00,31.0,27.9,29.94,SW,225,0.0,0.0,88,0.00,,OVC100,0.07,VWS V14.01,2013-01-07 01:50:00,
2013-01-06 20:51:00,31.0,27.9,29.94,SW,225,0.0,0.0,88,0.00,,OVC100,0.07,VWS V14.01,2013-01-07 01:51:00,
2013-01-06 20:54:00,31.0,27.6,29.94,SW,225,0.0,0.0,87,0.00,,OVC100,0.07,VWS V14.01,2013-01-07 01:54:00,
2013-01-06 20:55:00,31.0,27.6,29.94,SW,225,0.0,0.0,87,0.00,,OVC100,0.07,VWS V14.01,2013-01-07 01:55:00,
2013-01-06 20:56:00,31.0,27.6,29.94,SW,225,0.0,0.0,87,0.00,,OVC100,0.07,VWS V14.01,2013-01-07 01:56:00,
2013-01-06 20:57:00,31.0,27.6,29.94,SW,225,0.0,0.0,87,0.00,,OVC100,0.07,VWS V14.01,2013-01-07 01:57:00,
2013-01-06 21:00:00,31.0,27.6,29.94,SW,225,0.0,0.0,87,0.00,,OVC100,0.07,VWS V14.01,2013-01-07 02:00:00,
2013-01-06 21:10:00,31.0,27.6,29.94,SW,225,0.0,0.0,87,0.00,,OVC100,0.07,VWS V14.01,2013-01-07 02:10:00,
2013-01-06 21:20:00,30.0,27.4,29.94,SW,225,0.0,0.0,90,0.00,,OVC100,0.07,VWS V14.01,2013-01-07 02:20:00,
2013-01-06 21:30:00,30.0,27.4,29.94,SW,225,0.0,0.0,90,0.00,,OVC100,0.07,VWS V14.01,2013-01-07 02:30:00,
2013-01-06 21:40:00,29.0,26.7,29.93,SW,225,0.0,0.0,91,0.00,,OVC100,0.07,VWS V14.01,2013-01-07 02:40:00,
2013-01-06 21:50:00,29.0,27.0,29.93,SW,225,0.0,0.0,92,0.00,,OVC100,0.07,VWS V14.01,2013-01-07 02:50:00,
2013-01-06 22:00:00,29.0,27.0,29.93,SW,225,0.0,0.0,92,0.00,,OVC100,0.07,VWS V14.01,2013-01-07 03:00:00,
2013-01-06 22:10:00,29.0,27.0,29.94,SW,225,0.0,0.0,92,0.00,,OVC100,0.07,VWS V14.01,2013-01-07 03:10:00,
2013-01-06 22:20:00,29.0,27.0,29.94,SW,225,0.0,0.0,92,0.00,,OVC100,0.07,VWS V14.01,2013-01-07 03:20:00,
2013-01-06 22:30:00,29.0,27.0,29.93,SW,225,0.0,0.0,92,0.00,,OVC100,0.07,VWS V14.01,2013-01-07 03:30:00,
2013-01-06 22:40:00,29.0,27.0,29.93,SW,225,0.0,0.0,92,0.00,,OVC100,0.07,VWS V14.01,2013-01-07 03:40:00,
2013-01-06 22:50:00,29.0,27.0,29.93,SW,225,0.0,0.0,92,0.00,,OVC100,0.07,VWS V14.01,2013-01-07 03:50:00,
2013-01-06 23:00:00,29.0,27.0,29.93,SW,225,0.0,0.0,92,0.00,,OVC100,0.07,VWS V14.01,2013-01-07 04:00:00,
2013-01-06 23:10:00,28.0,26.2,29.93,SW,225,0.0,0.0,93,0.00,,OVC100,0.07,VWS V14.01,2013-01-07 04:10:00,
2013-01-06 23:20:00,29.0,27.5,29.93,SW,225,0.0,0.0,94,0.00,,OVC100,0.07,VWS V14.01,2013-01-07 04:20:00,
2013-01-06 23:30:00,29.0,27.5,29.93,SW,225,0.0,0.0,94,0.00,,OVC100,0.07,VWS V14.01,2013-01-07 04:30:00,
2013-01-06 23:40:00,29.0,27.5,29.93,SW,225,0.0,0.0,94,0.00,,OVC100,0.07,VWS V14.01,2013-01-07 04:40:00,
2013-01-06 23:50:00,29.0,27.2,29.93,SW,225,0.0,0.0,93,0.00,,OVC100,0.07,VWS V14.01,2013-01-07 04:50:00,